Location: ??????????
(41.2581°N, 22.8006°E)
Time: 07:44:46
(UTC+00:00)

NOSS 7 (H) - Visible Passes

Search period start: 11 March 2026 00:00
Search period end: 21 March 2026 00:00
Orbit: 368 x 1487 km, 63.3° (Epoch: 10 March)

Date Brightness Start Highest point End Pass type
(mag) Time Alt. Az. Time Alt. Az. Time Alt. Az.
11 Mar 4.4 17:47:14 10° NW 17:50:12 69° SW 17:52:20 20° SSE visible
12 Mar 5.9 17:58:02 10° NW 18:00:47 31° WSW 18:03:50 10° S visible
13 Mar 7.1 18:09:17 10° WNW 18:11:19 16° WSW 18:13:35 10° SSW visible
17 Mar 7.3 17:04:42 10° WNW 17:06:54 18° WSW 17:09:22 10° SSW visible
